EW0347 Weather Reports


time (UTC)temp
C
wind
direction
speed
KPH
gust
KPH
rain 1hr
cm
rain 24hr
cm
rain mn
cm
humidity
%
barometer
mb
20260504184542 20 297 8.0 29.0 0.00 0.00 0.00 32 1008.0
20260504183019 20 217 3.2 24.1 0.00 0.00 0.00 30 1008.2
20260504181545 19 222 9.7 37.0 0.00 0.00 0.00 31 1008.5
20260504180011 20 249 12.9 25.7 0.00 0.00 0.00 30 1008.6
20260504174545 19 207 11.3 37.0 0.00 0.00 0.00 29 1008.6
20260504173024 19 267 4.8 25.7 0.00 0.00 0.00 30 1008.7
20260504171548 18 59 8.0 40.2 0.00 0.00 0.00 30 1008.8
20260504140107 14 212 3.2 24.1 0.00 0.00 0.00 45 1010.5
20260504100103 5 232 0.0 3.2 0.00 0.00 0.00 72 1011.5
20260504090117 5 206 0.0 6.4 0.00 0.00 0.00 71 1011.5
20260504081537 4 204 0.0 8.0 0.00 0.00 0.00 72 1011.5
20260504044556 0 249 0.0 0.0 0.00 0.00 0.00 86 1011.5
20260504043028 0 249 0.0 1.6 0.00 0.00 0.00 86 1011.5
20260504041503 -1 249 0.0 0.0 0.00 0.00 0.00 85 1011.4
20260504040040 -1 249 0.0 1.6 0.00 0.00 0.00 83 1011.3
20260504034539 0 249 0.0 0.0 0.00 0.00 0.00 83 1011.1
20260504033029 0 249 0.0 8.0 0.00 0.00 0.00 82 1011.1
20260504031512 0 292 0.0 0.0 0.00 0.00 0.00 82 1011.0
20260504030052 0 292 0.0 3.2 0.00 0.00 0.00 78 1010.9
20260504024546 0 292 0.0 0.0 0.00 0.00 0.00 77 1010.9
20260504023032 0 292 0.0 0.0 0.00 0.00 0.00 76 1010.8
20260504021525 1 292 0.0 0.0 0.00 0.00 0.00 73 1010.8
20260504020055 1 292 0.0 0.0 0.00 0.00 0.00 71 1010.8
20260504014523 2 292 0.0 0.0 0.00 0.00 0.00 69 1010.7
20260504013011 3 292 0.0 0.0 0.00 0.00 0.00 68 1010.5
20260504011553 3 292 0.0 0.0 0.00 0.00 0.00 65 1010.4
20260504010023 5 292 0.0 1.6 0.00 0.00 0.00 63 1010.2
20260504004603 5 292 0.0 0.0 0.00 0.00 0.00 59 1009.9
20260504003033 6 292 0.0 4.8 0.00 0.00 0.00 54 1009.7
20260504001503 6 292 0.0 6.4 0.00 0.00 0.00 51 1009.6
20260504000039 7 300 3.2 12.9 0.00 0.00 0.00 47 1009.4
20260503234505 7 261 3.2 19.3 0.00 0.00 0.00 46 1009.4
20260503233036 7 327 4.8 17.7 0.00 0.00 0.00 45 1009.2
20260503231508 7 281 3.2 24.1 0.00 0.00 0.00 45 1009.1
20260503230046 8 292 9.7 30.6 0.00 0.00 0.00 43 1008.9
20260503224515 8 292 11.3 24.1 0.00 0.00 0.00 43 1008.8
20260503223040 7 325 8.0 19.3 0.00 0.00 0.00 47 1008.7
20260503221507 7 290 11.3 24.1 0.00 0.00 0.00 45 1008.7
20260503220053 7 311 9.7 27.4 0.00 0.00 0.00 45 1008.6
20260503214500 7 333 12.9 35.4 0.00 0.00 0.00 45 1008.6
20260503213037 7 290 11.3 40.2 0.00 0.00 0.00 43 1008.5
20260503211501 7 303 20.9 35.4 0.00 0.00 0.00 44 1008.4
20260503210039 8 316 17.7 43.5 0.00 0.00 0.00 43 1008.3
20260503204531 8 22 17.7 40.2 0.00 0.00 0.00 42 1008.1
20260503203001 8 294 19.3 38.6 0.00 0.00 0.00 43 1007.9
20260503201535 8 11 16.1 35.4 0.00 0.00 0.00 43 1007.8
20260503200007 8 297 12.9 33.8 0.00 0.00 0.00 44 1007.9
20260503194539 8 355 19.3 35.4 0.00 0.00 0.00 43 1007.7
20260503193003 8 281 11.3 38.6 0.00 0.00 0.00 46 1007.9
20260503191543 8 292 14.5 30.6 0.00 0.00 0.00 44 1007.6
20260503190023 8 304 9.7 32.2 0.00 0.00 0.00 46 1007.7